• In Deutschland
  • Länderverzeichnis
  • Für 7 Tage
  • Wassertemperatur
  • Satellitenkarten
  • Wetterkarte
  • Widgets
  • user-avatar
    Anmelden

    Stündliche Wetter Sehnde

    Heute, 23 Juli, Montag

    Zeit Temperatur Niederschläge Wind Luftdruck Luftfeuchtigkeit
    00:00 +19°C° 0 mm 1 m/S 755 mmHg 85%
    01:00 +18°C° 0 mm 1 m/S 755 mmHg 87%
    02:00 +18°C° 0 mm 1 m/S 756 mmHg 88%
    03:00 +16°C° 0 mm 1 m/S 756 mmHg 89%
    04:00 +15°C° 0 mm 0 m/S 756 mmHg 90%
    05:00 +18°C° 0 mm 1 m/S 756 mmHg 86%
    06:00 +19°C° 0 mm 1 m/S 756 mmHg 81%
    07:00 +20°C° 0 mm 1 m/S 756 mmHg 77%
    08:00 +22°C° 0 mm 1 m/S 756 mmHg 71%
    09:00 +24°C° 0 mm 1 m/S 757 mmHg 66%
    10:00 +25°C° 0 mm 2 m/S 757 mmHg 60%
    11:00 +26°C° 0 mm 2 m/S 756 mmHg 56%
    12:00 +27°C° 0 mm 2 m/S 756 mmHg 52%
    13:00 +28°C° 0 mm 3 m/S 756 mmHg 48%
    14:00 +28°C° 0 mm 2 m/S 756 mmHg 47%
    15:00 +29°C° 0 mm 2 m/S 756 mmHg 47%
    16:00 +29°C° 0 mm 2 m/S 756 mmHg 46%
    17:00 +28°C° 0 mm 2 m/S 756 mmHg 50%
    18:00 +28°C° 0 mm 2 m/S 756 mmHg 54%
    19:00 +27°C° 0 mm 1 m/S 756 mmHg 59%
    20:00 +25°C° 0 mm 1 m/S 756 mmHg 64%
    21:00 +24°C° 0 mm 1 m/S 756 mmHg 69%
    22:00 +22°C° 0 mm 1 m/S 757 mmHg 74%
    23:00 +21°C° 0 mm 1 m/S 757 mmHg 76%

    Morgen, 24 Juli, Dienstag

    Zeit Temperatur Niederschläge Wind Luftdruck Luftfeuchtigkeit
    00:00 +21°C° 0 mm 1 m/S 757 mmHg 79%
    01:00 +18°C° 0 mm 0 m/S 757 mmHg 82%
    02:00 +18°C° 0 mm 0 m/S 756 mmHg 82%
    03:00 +17°C° 0 mm 0 m/S 756 mmHg 83%
    04:00 +17°C° 0 mm 0 m/S 756 mmHg 84%
    05:00 +19°C° 0 mm 0 m/S 756 mmHg 79%
    06:00 +20°C° 0 mm 0 m/S 756 mmHg 74%
    07:00 +21°C° 0 mm 0 m/S 756 mmHg 69%
    08:00 +25°C° 0 mm 1 m/S 756 mmHg 63%
    09:00 +27°C° 0 mm 1 m/S 756 mmHg 57%
    10:00 +29°C° 0 mm 1 m/S 756 mmHg 50%
    11:00 +30°C° 0 mm 1 m/S 756 mmHg 47%
    12:00 +31°C° 0 mm 1 m/S 756 mmHg 44%
    13:00 +32°C° 0 mm 1 m/S 755 mmHg 41%
    14:00 +32°C° 0 mm 1 m/S 755 mmHg 41%
    15:00 +32°C° 0 mm 1 m/S 755 mmHg 41%
    16:00 +32°C° 0 mm 1 m/S 754 mmHg 41%
    17:00 +31°C° 0 mm 1 m/S 754 mmHg 45%
    18:00 +31°C° 0 mm 1 m/S 754 mmHg 49%
    19:00 +30°C° 0 mm 1 m/S 754 mmHg 53%
    20:00 +28°C° 0 mm 1 m/S 755 mmHg 57%
    21:00 +26°C° 0 mm 1 m/S 755 mmHg 60%
    22:00 +25°C° 0 mm 1 m/S 755 mmHg 64%
    23:00 +24°C° 0 mm 1 m/S 755 mmHg 67%

    übermorgen, 25 Juli, Mittwoch

    Zeit Temperatur Niederschläge Wind Luftdruck Luftfeuchtigkeit
    00:00 +23°C° 0 mm 1 m/S 755 mmHg 70%
    01:00 +23°C° 0 mm 1 m/S 755 mmHg 73%
    02:00 +22°C° 0 mm 1 m/S 755 mmHg 74%
    03:00 +22°C° 0 mm 1 m/S 755 mmHg 76%
    04:00 +22°C° 0 mm 1 m/S 755 mmHg 78%
    05:00 +23°C° 0 mm 1 m/S 755 mmHg 74%
    06:00 +24°C° 0 mm 1 m/S 755 mmHg 71%
    07:00 +26°C° 0 mm 1 m/S 756 mmHg 67%
    08:00 +27°C° 0 mm 1 m/S 756 mmHg 61%
    09:00 +29°C° 0 mm 1 m/S 756 mmHg 55%
    10:00 +31°C° 0 mm 2 m/S 756 mmHg 49%
    11:00 +31°C° 0 mm 2 m/S 756 mmHg 46%
    12:00 +32°C° 0 mm 2 m/S 755 mmHg 44%
    13:00 +34°C° 0 mm 2 m/S 755 mmHg 42%
    14:00 +34°C° 0 mm 2 m/S 755 mmHg 42%
    15:00 +34°C° 0 mm 2 m/S 755 mmHg 41%
    16:00 +34°C° 0 mm 2 m/S 755 mmHg 40%
    17:00 +32°C° 0 mm 1 m/S 755 mmHg 44%
    18:00 +31°C° 0 mm 1 m/S 755 mmHg 47%
    19:00 +30°C° 0 mm 1 m/S 755 mmHg 50%
    20:00 +29°C° 0 mm 1 m/S 755 mmHg 54%
    21:00 +27°C° 0 mm 2 m/S 755 mmHg 58%
    22:00 +26°C° 0 mm 2 m/S 756 mmHg 62%
    23:00 +25°C° 0 mm 2 m/S 756 mmHg 66%

    26 Juli, Donnerstag

    Zeit Temperatur Niederschläge Wind Luftdruck Luftfeuchtigkeit
    00:00 +24°C° 0 mm 2 m/S 756 mmHg 70%
    01:00 +23°C° 0 mm 2 m/S 756 mmHg 74%
    02:00 +23°C° 0 mm 2 m/S 756 mmHg 76%
    03:00 +22°C° 0 mm 1 m/S 756 mmHg 78%
    04:00 +22°C° 0 mm 1 m/S 756 mmHg 80%
    05:00 +23°C° 0 mm 1 m/S 756 mmHg 76%
    06:00 +24°C° 0 mm 1 m/S 756 mmHg 73%
    07:00 +25°C° 0 mm 1 m/S 756 mmHg 69%
    08:00 +27°C° 0 mm 2 m/S 757 mmHg 63%
    09:00 +29°C° 0 mm 2 m/S 757 mmHg 56%
    10:00 +31°C° 0 mm 2 m/S 757 mmHg 50%
    11:00 +32°C° 0 mm 2 m/S 756 mmHg 45%
    12:00 +34°C° 0 mm 2 m/S 756 mmHg 41%
    13:00 +35°C° 0 mm 2 m/S 756 mmHg 37%
    14:00 +35°C° 0 mm 2 m/S 756 mmHg 36%
    15:00 +35°C° 0 mm 2 m/S 756 mmHg 36%
    16:00 +35°C° 0 mm 2 m/S 756 mmHg 35%
    17:00 +34°C° 0 mm 2 m/S 756 mmHg 40%
    18:00 +32°C° 0 mm 2 m/S 756 mmHg 44%
    19:00 +31°C° 0 mm 2 m/S 755 mmHg 49%
    20:00 +29°C° 0 mm 2 m/S 756 mmHg 53%
    21:00 +27°C° 0 mm 2 m/S 756 mmHg 57%
    22:00 +26°C° 0 mm 2 m/S 756 mmHg 61%
    23:00 +25°C° 0 mm 2 m/S 756 mmHg 65%

    27 Juli, Freitag

    Zeit Temperatur Niederschläge Wind Luftdruck Luftfeuchtigkeit
    00:00 +24°C° 0 mm 2 m/S 756 mmHg 68%
    01:00 +23°C° 0 mm 2 m/S 756 mmHg 72%
    02:00 +21°C° 0 mm 2 m/S 756 mmHg 74%
    03:00 +21°C° 0 mm 2 m/S 756 mmHg 76%
    04:00 +21°C° 0 mm 1 m/S 756 mmHg 78%
    05:00 +22°C° 0 mm 1 m/S 756 mmHg 74%
    06:00 +23°C° 0 mm 2 m/S 756 mmHg 71%
    07:00 +24°C° 0 mm 2 m/S 756 mmHg 67%
    08:00 +26°C° 0 mm 2 m/S 756 mmHg 60%
    09:00 +27°C° 0 mm 3 m/S 756 mmHg 52%
    10:00 +29°C° 0 mm 3 m/S 756 mmHg 45%
    11:00 +30°C° 0 mm 3 m/S 755 mmHg 42%
    12:00 +31°C° 0 mm 3 m/S 755 mmHg 38%
    13:00 +33°C° 0 mm 3 m/S 754 mmHg 35%
    14:00 +34°C° 0 mm 3 m/S 754 mmHg 35%
    15:00 +34°C° 0 mm 2 m/S 754 mmHg 34%
    16:00 +34°C° 0 mm 2 m/S 754 mmHg 34%
    17:00 +32°C° 0 mm 2 m/S 754 mmHg 38%
    18:00 +31°C° 0 mm 2 m/S 754 mmHg 43%
    19:00 +30°C° 0 mm 1 m/S 753 mmHg 47%
    20:00 +28°C° 0 mm 2 m/S 754 mmHg 52%
    21:00 +27°C° 0 mm 2 m/S 754 mmHg 56%
    22:00 +25°C° 0 mm 2 m/S 754 mmHg 60%
    23:00 +24°C° 0 mm 2 m/S 754 mmHg 65%

    28 Juli, Samstag

    Zeit Temperatur Niederschläge Wind Luftdruck Luftfeuchtigkeit
    00:00 +24°C° 0 mm 2 m/S 754 mmHg 70%
    01:00 +23°C° 0 mm 1 m/S 753 mmHg 75%
    02:00 +23°C° 0 mm 1 m/S 753 mmHg 76%
    03:00 +22°C° 0 mm 1 m/S 753 mmHg 78%
    04:00 +22°C° 0 mm 1 m/S 753 mmHg 79%
    05:00 +23°C° 0 mm 1 m/S 753 mmHg 75%
    06:00 +24°C° 0 mm 1 m/S 753 mmHg 70%
    07:00 +25°C° 0 mm 1 m/S 753 mmHg 66%
    08:00 +27°C° 0 mm 1 m/S 753 mmHg 59%
    09:00 +29°C° 0 mm 2 m/S 753 mmHg 52%
    10:00 +31°C° 0 mm 2 m/S 753 mmHg 46%
    11:00 +32°C° 0 mm 2 m/S 753 mmHg 43%
    12:00 +34°C° 0 mm 2 m/S 753 mmHg 40%
    13:00 +35°C° 0 mm 2 m/S 753 mmHg 37%
    14:00 +35°C° 0 mm 3 m/S 753 mmHg 38%
    15:00 +35°C° 0 mm 3 m/S 753 mmHg 38%
    16:00 +35°C° 0 mm 3 m/S 753 mmHg 39%
    17:00 +34°C° 0 mm 3 m/S 753 mmHg 44%
    18:00 +31°C° 0 mm 3 m/S 754 mmHg 49%
    19:00 +30°C° 0 mm 3 m/S 754 mmHg 55%
    20:00 +28°C° 0,6 mm 3 m/S 754 mmHg 64%
    21:00 +26°C° 0,6 mm 3 m/S 755 mmHg 74%
    22:00 +22°C° 0,6 mm 3 m/S 755 mmHg 84%
    23:00 +21°C° 0,7 mm 2 m/S 755 mmHg 87%
    Mehr zeigen